User: anonymous   Login
Location: Bad Salzschlirf
(50.3750°N, 9.3000°E)
Time: 16:08:02
(UTC+02:00)
Language:

ISS - Orbit

View from above orbital plane
View from above orbital plane
View from above satellite
View from above satellite

Ground track
Ground track

The orbit data is extracted from the following two-line orbital elements,

1 25544U 98067A   20146.51043295  .00016717  00000-0  10270-3 0  9032
2 25544  51.6405 100.7144 0001796 348.2456  11.8652 15.49369673 28494
Epoch (UTC): 25 May 2020 12:15:01
Eccentricity: 0.0001796
inclination: 51.6405°
perigee height: 417 km
apogee height: 420 km
right ascension of ascending node: 100.7144°
argument of perigee: 348.2456°
revolutions per day: 15.49369673
mean anomaly at epoch: 11.8652°
orbit number at epoch: 2849

The dashed part of the orbit path shows where the satellite is in the earth's shadow,  

DLR